FIA

Advertising

SS8 Novella - Pietralba 2 (30.80 km)

Stage-

Pos # Driver Time Diff Prev Diff 1st
1. 3 BELT. NEUVILLE 19:06.1
2. 4 ESPD. SORDO 19:08.1 +2.0 +2.0
3. 8 IRLC. BREEN 19:12.1 +4.0 +6.0
4. 12 ESTO. TANAK 19:16.3 +4.2 +10.2
5. 9 NORA. MIKKELSEN 19:16.8 +0.5 +10.7
6. 1 FRAS. OGIER 19:19.1 +2.3 +13.0
7. 2 FINJ. LATVALA 19:21.6 +2.5 +15.5
8. 20 NZLH. PADDON 19:21.7 +0.1 +15.6
9. 5 NORM. OSTBERG 19:27.7 +6.0 +21.6
10. 6 FRAE. CAMILLI 19:28.4 +0.7 +22.3
11. 31 GBRE. EVANS 19:45.1 +16.7 +39.0
12. 86 ITAF. ANDOLFI 19:47.2 +2.1 +41.1
13. 82 FRAB. BOUFFIER 19:48.2 +1.0 +42.1
14. 40 FRAJ. MAURIN 19:49.7 +1.5 +43.6
15. 36 FRAY. BONATO 19:54.7 +5.0 +48.6
16. 32 CZEJ. KOPECKY 20:00.6 +5.9 +54.5
17. 85 FRAS. MICHEL 20:22.1 +21.5 +1:16.0
18. 84 FINT. SUNINEN 20:31.6 +9.5 +1:25.5
19. 33 FRAQ. GILBERT 20:39.8 +8.2 +1:33.7
20. 72 FRAY. ROSSEL 21:04.7 +24.9 +1:58.6
21. 62 NORO. VEIBY 21:09.4 +4.7 +2:03.3
22. 73 FRAL. PELLIER 21:09.9 +0.5 +2:03.8
23. 64 FRAT. FOLB 21:10.0 +0.1 +2:03.9
24. 61 ITAS. TEMPESTINI 21:20.8 +10.8 +2:14.7
25. 63 SVKM. KOCI 21:35.5 +14.7 +2:29.4
26. 105 FRAN. CIAMIN 21:41.8 +6.3 +2:35.7
27. 100 FRAC. CARDI 22:26.2 +44.4 +3:20.1
28. 93 FRAT. MATTEI 22:30.7 +4.5 +3:24.6
29. 70 CHEM. BURRI 22:38.1 +7.4 +3:32.0
30. 69 FRAI. GIUSTI 22:43.0 +4.9 +3:36.9
31. 94 FRAP. TREVIS 22:47.7 +4.7 +3:41.6
32. 68 ITAE. BRAZZOLI 22:49.1 +1.4 +3:43.0
33. 37 ITAL. BERTELLI 23:11.4 +22.3 +4:05.3
34. 88 IRLE. BOLAND 23:16.2 +4.8 +4:10.1
35. 101 FRAN. LECA 23:31.3 +15.1 +4:25.2
36. 102 FRAE. FILIPPI 23:45.7 +14.4 +4:39.6
37. 106 FRAA. MARIANI 24:22.9 +37.2 +5:16.8
38. 115 FRAP. GENTY 24:43.0 +20.1 +5:36.9
39. 117 FRAL. SALINI 24:54.3 +11.3 +5:48.2
40. 110 FRAJ. DE MEYER 25:46.0 +51.7 +6:39.9
41. 116 FRAF. FOISSAC 26:03.2 +17.2 +6:57.1
42. 7 GBRK. MEEKE 26:06.1 +2.9 +7:00.0
43. 104 CANI. CRERAR 26:15.2 +9.1 +7:09.1
44. 119 FRAA. DI PAOLO 26:23.1 +7.9 +7:17.0
45. 114 FRAV. RAYNAUD 26:24.9 +1.8 +7:18.8
46. 34 FRAP. LOUBET 26:45.1 +20.2 +7:39.0
47. 41 POLM. SZCZEPANIAK 26:45.1 +0.0 +7:39.0
48. 87 FRAB. CLEMENCON 26:47.2 +2.1 +7:41.1
49. 92 FRAJ. PLISSON 26:47.2 +0.0 +7:41.1
50. 120 FRAE. BERTIN 26:59.5 +12.3 +7:53.4
51. 65 FRAV. DUBERT 28:04.7 +1:05.2 +8:58.6
52. 103 FRAY. WENDLING 28:11.9 +7.2 +9:05.8
53. 98 CHEC. ALTHAUS 29:26.2 +1:14.3 +10:20.1
54. 113 FRAA. MARI 29:30.7 +4.5 +10:24.6
55. 118 FRAP. MARCHAND 29:30.7 +0.0 +10:24.6
56. 107 FRAC. BENSIMON 32:30.7 +3:00.0 +13:24.6

Overall-

Pos # Driver Time Diff Prev Diff 1st
1. 1 FRAS. OGIER 3:27:10.0
2. 3 BELT. NEUVILLE 3:27:56.5 +46.5 +46.5
3. 9 NORA. MIKKELSEN 3:28:18.0 +21.5 +1:08.0
4. 2 FINJ. LATVALA 3:28:51.3 +33.3 +1:41.3
5. 8 IRLC. BREEN 3:29:14.9 +23.6 +2:04.9
6. 20 NZLH. PADDON 3:29:52.7 +37.8 +2:42.7
7. 4 ESPD. SORDO 3:30:13.9 +21.2 +3:03.9
8. 6 FRAE. CAMILLI 3:31:28.2 +1:14.3 +4:18.2
9. 5 NORM. OSTBERG 3:32:20.5 +52.3 +5:10.5
10. 31 GBRE. EVANS 3:32:57.0 +36.5 +5:47.0
11. 12 ESTO. TANAK 3:33:10.2 +13.2 +6:00.2
12. 32 CZEJ. KOPECKY 3:33:34.8 +24.6 +6:24.8
13. 82 FRAB. BOUFFIER 3:35:41.5 +2:06.7 +8:31.5
14. 36 FRAY. BONATO 3:36:12.7 +31.2 +9:02.7
15. 40 FRAJ. MAURIN 3:36:50.3 +37.6 +9:40.3
16. 84 FINT. SUNINEN 3:41:16.0 +4:25.7 +14:06.0
17. 37 ITAL. BERTELLI 3:45:37.5 +4:21.5 +18:27.5
18. 7 GBRK. MEEKE 3:50:31.6 +4:54.1 +23:21.6
19. 72 FRAY. ROSSEL 3:53:08.0 +2:36.4 +25:58.0
20. 73 FRAL. PELLIER 3:53:22.9 +14.9 +26:12.9
21. 63 SVKM. KOCI 3:54:48.1 +1:25.2 +27:38.1
22. 86 ITAF. ANDOLFI 3:55:24.5 +36.4 +28:14.5
23. 61 ITAS. TEMPESTINI 3:57:16.3 +1:51.8 +30:06.3
24. 85 FRAS. MICHEL 3:58:36.3 +1:20.0 +31:26.3
25. 70 CHEM. BURRI 3:59:59.8 +1:23.5 +32:49.8
26. 34 FRAP. LOUBET 4:04:31.9 +4:32.1 +37:21.9
27. 88 IRLE. BOLAND 4:04:36.2 +4.3 +37:26.2
28. 64 FRAT. FOLB 4:04:57.6 +21.4 +37:47.6
29. 33 FRAQ. GILBERT 4:05:35.2 +37.6 +38:25.2
30. 94 FRAP. TREVIS 4:09:24.8 +3:49.6 +42:14.8
31. 93 FRAT. MATTEI 4:11:26.1 +2:01.3 +44:16.1
32. 65 FRAV. DUBERT 4:11:35.3 +9.2 +44:25.3
33. 62 NORO. VEIBY 4:11:37.7 +2.4 +44:27.7
34. 68 ITAE. BRAZZOLI 4:15:23.7 +3:46.0 +48:13.7
35. 100 FRAC. CARDI 4:16:59.0 +1:35.3 +49:49.0
36. 101 FRAN. LECA 4:18:50.6 +1:51.6 +51:40.6
37. 98 CHEC. ALTHAUS 4:19:19.1 +28.5 +52:09.1
38. 102 FRAE. FILIPPI 4:19:32.6 +13.5 +52:22.6
39. 105 FRAN. CIAMIN 4:19:34.9 +2.3 +52:24.9
40. 41 POLM. SZCZEPANIAK 4:20:43.2 +1:08.3 +53:33.2
41. 92 FRAJ. PLISSON 4:23:06.6 +2:23.4 +55:56.6
42. 117 FRAL. SALINI 4:23:53.8 +47.2 +56:43.8
43. 103 FRAY. WENDLING 4:24:59.3 +1:05.5 +57:49.3
44. 106 FRAA. MARIANI 4:25:17.0 +17.7 +58:07.0
45. 87 FRAB. CLEMENCON 4:26:55.4 +1:38.4 +59:45.4
46. 110 FRAJ. DE MEYER 4:31:44.1 +4:48.7 +1:04:34.1
47. 116 FRAF. FOISSAC 4:36:04.1 +4:20.0 +1:08:54.1
48. 113 FRAA. MARI 4:38:33.2 +2:29.1 +1:11:23.2
49. 107 FRAC. BENSIMON 4:38:49.4 +16.2 +1:11:39.4
50. 120 FRAE. BERTIN 4:42:03.0 +3:13.6 +1:14:53.0
51. 104 CANI. CRERAR 4:43:22.1 +1:19.1 +1:16:12.1
52. 119 FRAA. DI PAOLO 4:44:04.4 +42.3 +1:16:54.4
53. 118 FRAP. MARCHAND 4:51:00.4 +6:56.0 +1:23:50.4
54. 114 FRAV. RAYNAUD 5:00:17.6 +9:17.2 +1:33:07.6
55. 115 FRAP. GENTY 5:01:06.6 +49.0 +1:33:56.6
56. 69 FRAI. GIUSTI 5:03:42.9 +2:36.3 +1:36:32.9

Advertising